{"data":{"norad_id":56842,"epoch":"2026-05-25T02:38:17.692800Z","epoch_age_seconds":65702,"freshness":"FRESH","line1":"1 56842U 23079V   26145.10992700  .00001349  00000+0  58532-4 0  9995","line2":"2 56842  43.0015  35.5520 0001305 261.4671  98.6033 15.27574667164578","mean_motion":15.27574667,"eccentricity":0.0001305,"inclination_deg":43.0015,"raan_deg":35.552,"arg_perigee_deg":261.4671,"mean_anomaly_deg":98.6033,"bstar":5.8532e-5,"rev_number":16457,"period_min":94.267077813487,"perigee_km":482.16967813716,"apogee_km":483.96045187613,"semimajor_km":6861.2020650066,"source":"CELESTRAK","updated_at":"2026-05-25T13:38:18.165686Z"}}